When you browse on this site, cookies collect data to enhance your experience and personalize the content and advertising you see.
Visit our Privacy Policy to learn more. By continuing to use the site, you agree to this use of cookies and data.
  • In United Kingdom
  • List of Countries
  • For 7 days
  • Water Temperature
  • Weather Map
  • Weather Widgets
  • user-avatar
    Login

    Hourly Weather Cambridge

    Today, 26 February, Wednesday

    Time Temperature Precipitation Wind Pressure Humidity
    00:00 -1°C° 0.1 mm 7 mps 744 mmHg 91%
    01:00 -1°C° 0 mm 7 mps 745 mmHg 88%
    02:00 -1°C° 0 mm 7 mps 745 mmHg 85%
    03:00 -1°C° 0 mm 7 mps 745 mmHg 82%
    04:00 -1°C° 0 mm 7 mps 746 mmHg 83%
    05:00 -2°C° 0 mm 6 mps 746 mmHg 85%
    06:00 -2°C° 0 mm 6 mps 747 mmHg 86%
    07:00 -1°C° 0 mm 6 mps 747 mmHg 83%
    08:00 0°C° 0 mm 7 mps 748 mmHg 80%
    09:00 0°C° 0 mm 7 mps 749 mmHg 78%
    10:00 +2°C° 0 mm 7 mps 749 mmHg 74%
    11:00 +4°C° 0 mm 7 mps 750 mmHg 70%
    12:00 +5°C° 0 mm 7 mps 751 mmHg 67%
    13:00 +4°C° 0.2 mm 8 mps 751 mmHg 66%
    14:00 +3°C° 0.2 mm 9 mps 751 mmHg 66%
    15:00 +3°C° 0.2 mm 9 mps 752 mmHg 66%
    16:00 +2°C° 0 mm 8 mps 752 mmHg 68%
    17:00 +2°C° 0 mm 6 mps 753 mmHg 69%
    18:00 +1°C° 0 mm 5 mps 753 mmHg 70%
    19:00 0°C° 0 mm 5 mps 753 mmHg 73%
    20:00 0°C° 0 mm 4 mps 753 mmHg 77%
    21:00 -1°C° 0 mm 4 mps 754 mmHg 80%
    22:00 0°C° 0 mm 4 mps 753 mmHg 80%
    23:00 0°C° 0 mm 4 mps 753 mmHg 81%

    Tomorrow, 27 February, Thursday

    Time Temperature Precipitation Wind Pressure Humidity
    00:00 0°C° 0 mm 4 mps 752 mmHg 81%
    01:00 0°C° 0 mm 4 mps 751 mmHg 82%
    02:00 0°C° 0 mm 4 mps 750 mmHg 83%
    03:00 0°C° 0 mm 4 mps 749 mmHg 85%
    04:00 0°C° 0.9 mm 4 mps 747 mmHg 89%
    05:00 0°C° 0.9 mm 4 mps 746 mmHg 93%
    06:00 0°C° 0.9 mm 5 mps 744 mmHg 97%
    07:00 0°C° 2.1 mm 5 mps 743 mmHg 97%
    08:00 0°C° 2.1 mm 5 mps 741 mmHg 97%
    09:00 0°C° 2.1 mm 5 mps 740 mmHg 97%
    10:00 -1°C° 2.3 mm 6 mps 740 mmHg 98%
    11:00 -1°C° 2.3 mm 7 mps 741 mmHg 98%
    12:00 -2°C° 2.3 mm 8 mps 741 mmHg 98%
    13:00 -1°C° 0.2 mm 8 mps 743 mmHg 94%
    14:00 0°C° 0.2 mm 8 mps 745 mmHg 90%
    15:00 +1°C° 0.2 mm 8 mps 747 mmHg 86%
    16:00 0°C° 0 mm 7 mps 748 mmHg 84%
    17:00 0°C° 0 mm 7 mps 749 mmHg 83%
    18:00 -1°C° 0 mm 6 mps 751 mmHg 82%
    19:00 -1°C° 0 mm 6 mps 752 mmHg 83%
    20:00 -2°C° 0 mm 6 mps 753 mmHg 83%
    21:00 -1°C° 0 mm 5 mps 754 mmHg 84%
    22:00 -1°C° 0 mm 5 mps 755 mmHg 85%
    23:00 -1°C° 0 mm 5 mps 755 mmHg 86%

    Day after tomorrow, 28 February, Friday

    Time Temperature Precipitation Wind Pressure Humidity
    00:00 -1°C° 0 mm 5 mps 756 mmHg 87%
    01:00 -1°C° 0 mm 5 mps 756 mmHg 88%
    02:00 -1°C° 0 mm 4 mps 756 mmHg 88%
    03:00 -1°C° 0 mm 4 mps 756 mmHg 89%
    04:00 -1°C° 0 mm 4 mps 756 mmHg 90%
    05:00 0°C° 0 mm 3 mps 756 mmHg 90%
    06:00 0°C° 0 mm 3 mps 756 mmHg 90%
    07:00 +1°C° 0 mm 3 mps 756 mmHg 89%
    08:00 +1°C° 0 mm 4 mps 756 mmHg 88%
    09:00 +1°C° 0 mm 4 mps 756 mmHg 87%
    10:00 +3°C° 0 mm 4 mps 755 mmHg 85%
    11:00 +4°C° 0 mm 4 mps 755 mmHg 83%
    12:00 +5°C° 0 mm 5 mps 755 mmHg 81%
    13:00 +3°C° 0.2 mm 5 mps 754 mmHg 86%
    14:00 +2°C° 0.2 mm 6 mps 753 mmHg 91%
    15:00 +1°C° 0.2 mm 6 mps 752 mmHg 95%
    16:00 +2°C° 0.2 mm 6 mps 751 mmHg 95%
    17:00 +2°C° 0.2 mm 5 mps 750 mmHg 96%
    18:00 +2°C° 0.2 mm 5 mps 749 mmHg 96%
    19:00 +2°C° 0.3 mm 5 mps 748 mmHg 96%
    20:00 +3°C° 0.3 mm 5 mps 747 mmHg 97%
    21:00 +5°C° 0.3 mm 5 mps 747 mmHg 97%
    22:00 +6°C° 0.6 mm 5 mps 746 mmHg 96%
    23:00 +7°C° 0.6 mm 6 mps 745 mmHg 94%

    29 February, Saturday

    Time Temperature Precipitation Wind Pressure Humidity
    00:00 +8°C° 0.6 mm 6 mps 744 mmHg 93%
    01:00 +8°C° 0.3 mm 7 mps 743 mmHg 91%
    02:00 +7°C° 0.3 mm 8 mps 741 mmHg 90%
    03:00 +7°C° 0.3 mm 9 mps 740 mmHg 89%
    04:00 +7°C° 0.1 mm 9 mps 739 mmHg 89%
    05:00 +7°C° 0.1 mm 9 mps 737 mmHg 89%
    06:00 +8°C° 0.1 mm 9 mps 736 mmHg 89%
    07:00 +7°C° 0.7 mm 10 mps 735 mmHg 88%
    08:00 +7°C° 0.7 mm 11 mps 734 mmHg 88%
    09:00 +7°C° 0.7 mm 11 mps 733 mmHg 88%
    10:00 +6°C° 1 mm 10 mps 734 mmHg 84%
    11:00 +5°C° 1 mm 9 mps 734 mmHg 79%
    12:00 +4°C° 1 mm 8 mps 735 mmHg 75%
    13:00 +3°C° 0.2 mm 9 mps 735 mmHg 72%
    14:00 +3°C° 0.2 mm 9 mps 735 mmHg 69%
    15:00 +3°C° 0.2 mm 10 mps 736 mmHg 66%
    16:00 +2°C° 0.1 mm 9 mps 736 mmHg 68%
    17:00 +1°C° 0.1 mm 8 mps 735 mmHg 71%
    18:00 +2°C° 0.1 mm 7 mps 735 mmHg 73%
    19:00 +1°C° 0 mm 8 mps 735 mmHg 74%
    20:00 0°C° 0 mm 9 mps 736 mmHg 74%
    21:00 0°C° 0 mm 10 mps 736 mmHg 74%
    22:00 0°C° 0 mm 10 mps 736 mmHg 76%
    23:00 0°C° 0 mm 10 mps 736 mmHg 77%

    1 March, Sunday

    Time Temperature Precipitation Wind Pressure Humidity
    00:00 0°C° 0 mm 9 mps 736 mmHg 78%
    01:00 0°C° 0 mm 9 mps 736 mmHg 78%
    02:00 0°C° 0 mm 9 mps 736 mmHg 79%
    03:00 0°C° 0 mm 9 mps 736 mmHg 79%
    04:00 0°C° 0 mm 9 mps 736 mmHg 81%
    05:00 -1°C° 0 mm 8 mps 736 mmHg 82%
    06:00 -1°C° 0 mm 8 mps 736 mmHg 84%
    07:00 0°C° 0 mm 9 mps 736 mmHg 80%
    08:00 +1°C° 0 mm 9 mps 736 mmHg 76%
    09:00 +2°C° 0 mm 10 mps 736 mmHg 73%
    10:00 +2°C° 0.1 mm 10 mps 735 mmHg 69%
    11:00 +3°C° 0.1 mm 10 mps 735 mmHg 66%
    12:00 +4°C° 0.1 mm 11 mps 735 mmHg 62%
    13:00 +4°C° 0.2 mm 11 mps 735 mmHg 63%
    14:00 +4°C° 0.2 mm 11 mps 735 mmHg 64%
    15:00 +5°C° 0.2 mm 10 mps 734 mmHg 65%
    16:00 +3°C° 0.1 mm 9 mps 734 mmHg 68%
    17:00 +2°C° 0.1 mm 9 mps 734 mmHg 72%
    18:00 +1°C° 0.1 mm 8 mps 734 mmHg 75%
    19:00 +1°C° 0 mm 8 mps 734 mmHg 75%
    20:00 +1°C° 0 mm 9 mps 734 mmHg 74%
    21:00 +1°C° 0 mm 9 mps 733 mmHg 74%
    22:00 +1°C° 0 mm 9 mps 733 mmHg 73%
    23:00 +1°C° 0 mm 9 mps 733 mmHg 71%

    2 March, Monday

    Time Temperature Precipitation Wind Pressure Humidity
    00:00 +1°C° 0 mm 9 mps 732 mmHg 70%
    01:00 +1°C° 0.1 mm 9 mps 732 mmHg 76%
    02:00 +1°C° 0.1 mm 9 mps 731 mmHg 81%
    03:00 +1°C° 0.1 mm 9 mps 731 mmHg 87%
    04:00 +1°C° 0.1 mm 9 mps 731 mmHg 87%
    05:00 +2°C° 0.1 mm 9 mps 731 mmHg 87%
    06:00 +2°C° 0.1 mm 8 mps 731 mmHg 86%
    07:00 +2°C° 0.2 mm 8 mps 731 mmHg 84%
    08:00 +2°C° 0.2 mm 8 mps 732 mmHg 81%
    09:00 +2°C° 0.2 mm 8 mps 732 mmHg 79%
    10:00 +3°C° 0.2 mm 9 mps 733 mmHg 75%
    11:00 +5°C° 0.2 mm 9 mps 733 mmHg 72%
    12:00 +6°C° 0.2 mm 10 mps 734 mmHg 69%
    13:00 +5°C° 0.1 mm 9 mps 734 mmHg 70%
    14:00 +5°C° 0.1 mm 9 mps 735 mmHg 70%
    15:00 +5°C° 0.1 mm 8 mps 736 mmHg 70%
    16:00 +4°C° 0 mm 8 mps 736 mmHg 73%
    17:00 +3°C° 0 mm 7 mps 737 mmHg 75%
    18:00 +3°C° 0 mm 6 mps 738 mmHg 77%
    19:00 +2°C° 0 mm 7 mps 738 mmHg 77%
    20:00 +2°C° 0 mm 7 mps 739 mmHg 78%
    21:00 0°C° 0 mm 7 mps 740 mmHg 78%
    22:00 0°C° 0 mm 7 mps 740 mmHg 78%
    23:00 -1°C° 0 mm 7 mps 741 mmHg 77%
    Show more